WZZ5NE LPFR-EPKT

Flight info

Callsign WZZ5NE
Flight time 3h 12m
Altitude 36000
Route NIRAK DCT OXACA M30 HIJ DCT CRISA DCT INPAN DCT VTB DCT PALIO DCT SEGRE DCT YAKXU DCT RONNY DCT TOPTU DCT TOU DCT GAI DCT MEN DCT NINUN DCT LATAM DCT ETREK DCT LTP DCT SOPLO DCT OMASI DCT KINNI DCT SOSAL DCT KORED DCT GAMSA/N0443F370 DCT BEPAS DCT NELPA DCT BODAL DCT SOPAV DCT BAVOK
Aircraft A321/M-SDE1E2E3FGIJ1J4RWXY/LB1

Departure

Time 2026-04-28 23:15
Airport Faro - Gago Coutinho International Airport (LPFR)

Arrival

Time 2026-04-29 02:28
Airport Katowice Wojciech Korfanty International Airport (EPKT)
Time Latitude Longitude Altitude Speed Heading
2026-04-28 23:00 37.01885 -7.96623 20 ft 0 kts 10°
2026-04-28 23:06 37.01865 -7.96627 22 ft 4 kts
2026-04-28 23:06 37.01838 -7.96631 21 ft 4 kts 13°
2026-04-28 23:06 37.01818 -7.96639 46 ft 4 kts 27°
2026-04-28 23:07 37.01806 -7.96655 18 ft 2 kts 90°
2026-04-28 23:07 37.01807 -7.96687 20 ft 4 kts 99°
2026-04-28 23:07 37.01813 -7.96720 20 ft 4 kts 102°
2026-04-28 23:07 37.01814 -7.96730 20 ft 0 kts 100°
2026-04-28 23:11 37.01814 -7.96729 20 ft 1 kts 100°
2026-04-28 23:11 37.01809 -7.96697 20 ft 7 kts 100°
2026-04-28 23:12 37.01798 -7.96617 20 ft 12 kts 100°
2026-04-28 23:12 37.01762 -7.96531 20 ft 12 kts 162°
2026-04-28 23:12 37.01678 -7.96538 20 ft 12 kts 188°
2026-04-28 23:12 37.01615 -7.96490 20 ft 12 kts 109°
2026-04-28 23:13 37.01597 -7.96382 21 ft 13 kts 101°
2026-04-28 23:13 37.01579 -7.96266 20 ft 14 kts 98°
2026-04-28 23:13 37.01565 -7.96139 20 ft 15 kts 101°
2026-04-28 23:13 37.01545 -7.96004 19 ft 16 kts 100°
2026-04-28 23:14 37.01515 -7.95864 18 ft 14 kts 129°
2026-04-28 23:14 37.01435 -7.95847 20 ft 12 kts 186°
2026-04-28 23:14 37.01356 -7.95871 21 ft 11 kts 216°
2026-04-28 23:14 37.01354 -7.95965 21 ft 13 kts 277°
2026-04-28 23:15 37.01391 -7.96245 22 ft 64 kts 280°
2026-04-28 23:15 37.01510 -7.97076 21 ft 128 kts 280°
2026-04-28 23:15 37.01687 -7.98372 135 ft 164 kts 279°
2026-04-28 23:15 37.01898 -7.99729 898 ft 157 kts 280°
2026-04-28 23:16 37.02098 -8.01087 1458 ft 163 kts 280°
2026-04-28 23:16 37.02679 -8.02958 1757 ft 192 kts 319°
2026-04-28 23:16 37.03498 -8.03493 1910 ft 206 kts 350°
2026-04-28 23:16 37.04912 -8.03157 2218 ft 220 kts 32°
2026-04-28 23:17 37.05937 -8.01663 2376 ft 245 kts 62°
2026-04-28 23:17 37.06621 -7.99632 2842 ft 259 kts 71°
2026-04-28 23:17 37.07193 -7.97463 3537 ft 265 kts 72°
2026-04-28 23:17 37.07769 -7.95252 4269 ft 269 kts 71°
2026-04-28 23:18 37.08387 -7.93022 5008 ft 273 kts 70°
2026-04-28 23:18 37.09049 -7.90774 5698 ft 278 kts 69°
2026-04-28 23:18 37.09754 -7.88494 6365 ft 283 kts 68°
2026-04-28 23:18 37.10492 -7.86183 7031 ft 288 kts 68°
2026-04-28 23:19 37.11240 -7.83880 7710 ft 291 kts 68°
2026-04-28 23:19 37.12013 -7.81521 8404 ft 294 kts 69°
2026-04-28 23:19 37.12798 -7.79136 9104 ft 298 kts 69°
2026-04-28 23:19 37.13591 -7.76723 9798 ft 301 kts 69°
2026-04-28 23:20 37.14395 -7.74267 10285 ft 313 kts 69°
2026-04-28 23:20 37.15244 -7.71653 10426 ft 335 kts 69°
2026-04-28 23:20 37.16152 -7.68861 10635 ft 354 kts 69°
2026-04-28 23:20 37.17091 -7.65975 11156 ft 361 kts 69°
2026-04-28 23:21 37.18044 -7.63048 11761 ft 365 kts 69°
2026-04-28 23:21 37.18994 -7.60124 12350 ft 369 kts 69°
2026-04-28 23:21 37.19967 -7.57122 12922 ft 374 kts 70°
2026-04-28 23:21 37.20953 -7.54078 13529 ft 378 kts 70°
2026-04-28 23:22 37.21950 -7.51005 14085 ft 382 kts 70°
2026-04-28 23:22 37.22958 -7.47904 14652 ft 385 kts 69°
2026-04-28 23:22 37.23970 -7.44779 15227 ft 388 kts 69°
2026-04-28 23:22 37.25159 -7.41717 15793 ft 393 kts 59°
2026-04-28 23:23 37.26625 -7.38805 16381 ft 396 kts 58°
2026-04-28 23:23 37.28104 -7.35876 16961 ft 399 kts 58°
2026-04-28 23:23 37.29571 -7.32961 17525 ft 402 kts 58°
2026-04-28 23:23 37.31063 -7.29986 18102 ft 404 kts 58°
2026-04-28 23:24 37.32566 -7.26984 18592 ft 407 kts 58°
2026-04-28 23:24 37.34080 -7.23959 19074 ft 410 kts 58°
2026-04-28 23:24 37.35607 -7.20910 19553 ft 413 kts 59°
2026-04-28 23:24 37.37146 -7.17843 20037 ft 417 kts 59°
2026-04-28 23:25 37.38696 -7.14748 20529 ft 419 kts 59°
2026-04-28 23:25 37.40251 -7.11633 21011 ft 422 kts 59°
2026-04-28 23:25 37.41795 -7.08535 21512 ft 425 kts 59°
2026-04-28 23:25 37.43367 -7.05371 21983 ft 428 kts 59°
2026-04-28 23:26 37.44949 -7.02184 22443 ft 431 kts 59°
2026-04-28 23:26 37.46543 -6.98978 22895 ft 433 kts 59°
2026-04-28 23:26 37.48147 -6.95751 23336 ft 436 kts 59°
2026-04-28 23:26 37.49762 -6.92502 23719 ft 439 kts 59°
2026-04-28 23:27 37.51383 -6.89233 24078 ft 441 kts 59°
2026-04-28 23:27 37.52986 -6.85991 24435 ft 444 kts 60°
2026-04-28 23:27 37.54623 -6.82676 24785 ft 446 kts 59°
2026-04-28 23:27 37.56266 -6.79355 25161 ft 448 kts 60°
2026-04-28 23:28 37.57918 -6.76018 25528 ft 450 kts 60°
2026-04-28 23:28 37.59577 -6.72661 25885 ft 452 kts 60°
2026-04-28 23:28 37.61240 -6.69291 26232 ft 454 kts 60°
2026-04-28 23:28 37.62907 -6.65904 26589 ft 456 kts 60°
2026-04-28 23:29 37.64558 -6.62540 26930 ft 458 kts 60°
2026-04-28 23:29 37.66235 -6.59116 27273 ft 460 kts 60°
2026-04-28 23:29 37.67920 -6.55676 27605 ft 462 kts 60°
2026-04-28 23:29 37.69614 -6.52220 27945 ft 464 kts 60°
2026-04-28 23:30 37.71316 -6.48748 28271 ft 466 kts 60°
2026-04-28 23:30 37.73023 -6.45258 28583 ft 468 kts 60°
2026-04-28 23:30 37.74733 -6.41759 28921 ft 469 kts 61°
2026-04-28 23:30 37.76452 -6.38241 29231 ft 471 kts 61°
2026-04-28 23:31 37.78176 -6.34711 29532 ft 473 kts 61°
2026-04-28 23:31 37.79884 -6.31208 29840 ft 475 kts 61°
2026-04-28 23:31 37.81619 -6.27638 30119 ft 477 kts 61°
2026-04-28 23:31 37.83360 -6.24050 30372 ft 480 kts 61°
2026-04-28 23:32 37.85104 -6.20451 30674 ft 480 kts 61°
2026-04-28 23:32 37.86850 -6.16854 31033 ft 479 kts 61°
2026-04-28 23:32 37.88594 -6.13258 31373 ft 479 kts 61°
2026-04-28 23:32 37.90335 -6.09666 31703 ft 479 kts 61°
2026-04-28 23:33 37.92074 -6.06071 32053 ft 478 kts 62°
2026-04-28 23:33 37.93806 -6.02483 32408 ft 477 kts 62°
2026-04-28 23:33 37.95613 -5.99021 32743 ft 479 kts 56°
2026-04-28 23:33 37.97681 -5.95702 33062 ft 480 kts 54°
2026-04-28 23:34 37.99757 -5.92395 33394 ft 480 kts 54°
2026-04-28 23:34 38.01837 -5.89089 33706 ft 480 kts 55°
2026-04-28 23:34 38.03917 -5.85781 33999 ft 479 kts 55°
2026-04-28 23:34 38.05993 -5.82475 34290 ft 479 kts 54°
2026-04-28 23:35 38.08062 -5.79174 34588 ft 478 kts 54°
2026-04-28 23:35 38.10124 -5.75871 34871 ft 477 kts 54°
2026-04-28 23:35 38.12149 -5.72613 35135 ft 476 kts 54°
2026-04-28 23:35 38.14200 -5.69314 35402 ft 475 kts 54°
2026-04-28 23:36 38.16248 -5.66027 35703 ft 474 kts 53°
2026-04-28 23:36 38.18294 -5.62743 35871 ft 474 kts 53°
2026-04-28 23:36 38.22370 -5.56181 35904 ft 472 kts 53°
2026-04-28 23:37 38.26430 -5.49619 35902 ft 472 kts 53°
2026-04-28 23:37 38.30462 -5.43090 35905 ft 472 kts 53°
2026-04-28 23:38 38.34521 -5.36521 35907 ft 472 kts 53°
2026-04-28 23:38 38.38573 -5.29942 35897 ft 472 kts 53°
2026-04-28 23:39 38.42622 -5.23351 35911 ft 472 kts 53°
2026-04-28 23:39 38.46642 -5.16798 35922 ft 472 kts 53°
2026-04-28 23:40 38.50711 -5.10219 35924 ft 473 kts 50°
2026-04-28 23:40 38.55363 -5.04271 35928 ft 473 kts 45°
2026-04-28 23:41 38.60066 -4.98384 35928 ft 473 kts 45°
2026-04-28 23:41 38.64729 -4.92523 35912 ft 473 kts 45°
2026-04-28 23:42 38.69420 -4.86608 35918 ft 474 kts 45°
2026-04-28 23:42 38.74119 -4.80690 35920 ft 474 kts 45°
2026-04-28 23:43 38.78817 -4.74750 35925 ft 474 kts 45°
2026-04-28 23:43 38.83480 -4.68841 35932 ft 475 kts 45°
2026-04-28 23:44 38.88177 -4.62877 35933 ft 475 kts 45°
2026-04-28 23:44 38.92870 -4.56911 35925 ft 475 kts 45°
2026-04-28 23:45 38.97557 -4.50930 35934 ft 475 kts 45°
2026-04-28 23:45 39.02212 -4.44982 35935 ft 475 kts 45°
2026-04-28 23:46 39.06907 -4.38985 35942 ft 476 kts 45°
2026-04-28 23:46 39.11598 -4.32968 35935 ft 476 kts 45°
2026-04-28 23:47 39.16290 -4.26931 35934 ft 477 kts 45°
2026-04-28 23:47 39.20987 -4.20894 35935 ft 477 kts 45°
2026-04-28 23:48 39.25649 -4.14880 35933 ft 477 kts 46°
2026-04-28 23:48 39.30341 -4.08816 35935 ft 478 kts 46°
2026-04-28 23:49 39.35033 -4.02726 35927 ft 478 kts 46°
2026-04-28 23:49 39.39697 -3.96666 35927 ft 479 kts 46°
2026-04-28 23:50 39.44399 -3.90565 35929 ft 479 kts 46°
2026-04-28 23:50 39.49098 -3.84444 35929 ft 479 kts 46°
2026-04-28 23:51 39.53788 -3.78319 35925 ft 479 kts 45°
2026-04-28 23:51 39.58483 -3.72175 35923 ft 480 kts 45°
2026-04-28 23:52 39.63149 -3.66064 35920 ft 480 kts 45°
2026-04-28 23:52 39.67851 -3.59894 35920 ft 481 kts 46°
2026-04-28 23:53 39.72545 -3.53713 35922 ft 481 kts 46°
2026-04-28 23:53 39.77262 -3.47546 35929 ft 481 kts 41°
2026-04-28 23:54 39.82630 -3.42490 35932 ft 480 kts 32°
2026-04-28 23:54 39.88195 -3.37721 35939 ft 478 kts 33°
2026-04-28 23:55 39.93743 -3.32953 35939 ft 477 kts 33°
2026-04-28 23:55 39.99280 -3.28191 35947 ft 476 kts 33°
2026-04-28 23:56 40.04773 -3.23453 35939 ft 477 kts 33°
2026-04-28 23:56 40.10301 -3.18667 35948 ft 477 kts 33°
2026-04-28 23:57 40.15828 -3.13872 35943 ft 477 kts 33°
2026-04-28 23:57 40.21353 -3.09074 35946 ft 477 kts 33°
2026-04-28 23:58 40.26878 -3.04269 35946 ft 477 kts 32°
2026-04-28 23:58 40.32358 -2.99488 35944 ft 476 kts 32°
2026-04-28 23:59 40.37866 -2.94671 35947 ft 476 kts 32°
2026-04-28 23:59 40.43368 -2.89850 35946 ft 475 kts 32°
2026-04-29 00:00 40.48869 -2.85021 35957 ft 475 kts 32°
2026-04-29 00:00 40.54332 -2.80221 35951 ft 475 kts 32°
2026-04-29 00:01 40.59822 -2.75383 35947 ft 475 kts 32°
2026-04-29 00:01 40.65311 -2.70537 35948 ft 475 kts 32°
2026-04-29 00:02 40.70801 -2.65684 35931 ft 475 kts 32°
2026-04-29 00:02 40.76246 -2.60857 35940 ft 475 kts 32°
2026-04-29 00:03 40.81735 -2.55985 35931 ft 475 kts 32°
2026-04-29 00:03 40.87219 -2.51101 35941 ft 475 kts 32°
2026-04-29 00:04 40.92701 -2.46209 35944 ft 476 kts 32°
2026-04-29 00:04 40.98149 -2.41348 35933 ft 476 kts 32°
2026-04-29 00:05 41.03604 -2.36383 35970 ft 477 kts 34°
2026-04-29 00:05 41.06254 -2.33730 36212 ft 478 kts 37°
2026-04-29 00:05 41.08845 -2.30973 36476 ft 478 kts 38°
2026-04-29 00:06 41.11403 -2.28159 36723 ft 477 kts 38°
2026-04-29 00:06 41.13943 -2.25343 36915 ft 475 kts 38°
2026-04-29 00:06 41.18997 -2.19829 36923 ft 472 kts 37°
2026-04-29 00:07 41.24124 -2.14376 36925 ft 472 kts 37°
2026-04-29 00:07 41.29261 -2.08941 36926 ft 472 kts 37°
2026-04-29 00:08 41.34384 -2.03471 36930 ft 473 kts 37°
2026-04-29 00:08 41.39469 -1.98006 36927 ft 473 kts 37°
2026-04-29 00:09 41.44596 -1.92493 36929 ft 474 kts 37°
2026-04-29 00:09 41.49722 -1.86971 36934 ft 473 kts 37°
2026-04-29 00:10 41.54840 -1.81445 36948 ft 473 kts 37°
2026-04-29 00:10 41.59948 -1.75914 36941 ft 473 kts 37°
2026-04-29 00:11 41.65020 -1.70412 36939 ft 473 kts 37°
2026-04-29 00:12 41.72683 -1.62089 36926 ft 473 kts 37°
2026-04-29 00:12 41.77787 -1.56528 36940 ft 473 kts 37°
2026-04-29 00:13 41.82853 -1.50988 36919 ft 473 kts 37°
2026-04-29 00:13 41.87955 -1.45404 36923 ft 473 kts 37°
2026-04-29 00:14 41.93056 -1.39812 36923 ft 473 kts 37°
2026-04-29 00:14 41.98151 -1.34208 36936 ft 474 kts 37°
2026-04-29 00:15 42.03215 -1.28629 36926 ft 474 kts 37°
2026-04-29 00:15 42.08312 -1.22998 36923 ft 474 kts 37°
2026-04-29 00:16 42.13415 -1.17355 36927 ft 474 kts 37°
2026-04-29 00:16 42.18511 -1.11711 36916 ft 474 kts 38°
2026-04-29 00:17 42.23607 -1.06066 36940 ft 474 kts 37°
2026-04-29 00:17 42.28668 -1.00430 36938 ft 475 kts 38°
2026-04-29 00:18 42.33759 -0.94738 36937 ft 475 kts 38°
2026-04-29 00:18 42.38850 -0.89037 36948 ft 475 kts 38°
2026-04-29 00:19 42.43706 -0.83048 36959 ft 478 kts 49°
2026-04-29 00:19 42.47788 -0.75925 36944 ft 479 kts 51°
2026-04-29 00:20 42.51855 -0.68759 36955 ft 480 kts 52°
2026-04-29 00:20 42.55923 -0.61591 36955 ft 480 kts 51°
2026-04-29 00:21 42.59962 -0.54456 36974 ft 480 kts 51°
2026-04-29 00:21 42.64022 -0.47252 36977 ft 480 kts 51°
2026-04-29 00:22 42.68081 -0.40044 36979 ft 481 kts 51°
2026-04-29 00:22 42.72137 -0.32819 36976 ft 481 kts 52°
2026-04-29 00:23 42.76189 -0.25577 36989 ft 481 kts 51°
2026-04-29 00:23 42.80215 -0.18388 36974 ft 481 kts 51°
2026-04-29 00:24 42.84405 -0.11295 36980 ft 481 kts 49°
2026-04-29 00:24 42.88691 -0.04308 36975 ft 481 kts 49°
2026-04-29 00:25 42.92940 0.02664 36973 ft 480 kts 49°
2026-04-29 00:25 42.97156 0.09724 36979 ft 479 kts 50°
2026-04-29 00:26 43.01350 0.16795 36980 ft 479 kts 50°
2026-04-29 00:26 43.05551 0.23873 36984 ft 479 kts 49°
2026-04-29 00:27 43.09752 0.30945 36975 ft 479 kts 49°
2026-04-29 00:27 43.13926 0.37979 36966 ft 479 kts 50°
2026-04-29 00:28 43.18119 0.45065 36959 ft 479 kts 50°
2026-04-29 00:28 43.22305 0.52162 36966 ft 478 kts 50°
2026-04-29 00:29 43.26450 0.59215 36966 ft 478 kts 50°
2026-04-29 00:29 43.30618 0.66330 36970 ft 478 kts 50°
2026-04-29 00:30 43.34780 0.73445 36967 ft 478 kts 50°
2026-04-29 00:30 43.38945 0.80565 36962 ft 478 kts 50°
2026-04-29 00:31 43.43070 0.87643 36984 ft 477 kts 50°
2026-04-29 00:31 43.47215 0.94778 36984 ft 477 kts 50°
2026-04-29 00:32 43.51351 1.01924 36983 ft 477 kts 50°
2026-04-29 00:32 43.55485 1.09080 36986 ft 477 kts 50°
2026-04-29 00:33 43.59586 1.16201 36957 ft 477 kts 50°
2026-04-29 00:33 43.63708 1.23364 36977 ft 477 kts 50°
2026-04-29 00:34 43.67831 1.30537 36978 ft 476 kts 50°
2026-04-29 00:34 43.71854 1.37809 36973 ft 476 kts 52°
2026-04-29 00:35 43.75727 1.45170 36975 ft 476 kts 53°
2026-04-29 00:35 43.79615 1.52588 36985 ft 476 kts 53°
2026-04-29 00:36 43.83531 1.59980 36992 ft 476 kts 53°
2026-04-29 00:36 43.87462 1.67353 36993 ft 476 kts 53°
2026-04-29 00:37 43.91350 1.74697 37001 ft 476 kts 53°
2026-04-29 00:37 43.95254 1.82118 36998 ft 476 kts 53°
2026-04-29 00:38 43.99082 1.89617 37001 ft 476 kts 54°
2026-04-29 00:38 44.02823 1.97197 37006 ft 476 kts 55°
2026-04-29 00:39 44.06529 2.04737 37002 ft 476 kts 55°
2026-04-29 00:39 44.10278 2.12318 37004 ft 475 kts 54°
2026-04-29 00:40 44.14033 2.19888 37004 ft 475 kts 54°
2026-04-29 00:40 44.17781 2.27468 37005 ft 475 kts 55°
2026-04-29 00:41 44.21490 2.35006 37012 ft 475 kts 55°
2026-04-29 00:41 44.25218 2.42600 37018 ft 475 kts 55°
2026-04-29 00:42 44.28938 2.50212 37021 ft 474 kts 55°
2026-04-29 00:42 44.32647 2.57825 37025 ft 474 kts 55°
2026-04-29 00:43 44.36335 2.65392 37026 ft 474 kts 55°
2026-04-29 00:43 44.40044 2.73017 37026 ft 475 kts 55°
2026-04-29 00:44 44.43743 2.80667 37033 ft 475 kts 55°
2026-04-29 00:44 44.47435 2.88326 37035 ft 474 kts 55°
2026-04-29 00:45 44.51103 2.95932 37041 ft 474 kts 55°
2026-04-29 00:45 44.54787 3.03601 37039 ft 474 kts 55°
2026-04-29 00:46 44.58464 3.11281 37056 ft 474 kts 55°
2026-04-29 00:46 44.62089 3.19014 37059 ft 475 kts 58°
2026-04-29 00:47 44.65358 3.26997 37056 ft 475 kts 61°
2026-04-29 00:47 44.68486 3.35170 37061 ft 475 kts 61°
2026-04-29 00:48 44.71664 3.43313 37070 ft 475 kts 60°
2026-04-29 00:48 44.74905 3.51415 37071 ft 475 kts 60°
2026-04-29 00:49 44.78127 3.59461 37074 ft 475 kts 60°
2026-04-29 00:49 44.81347 3.67590 37075 ft 475 kts 60°
2026-04-29 00:50 44.84550 3.75740 37075 ft 476 kts 60°
2026-04-29 00:50 44.87758 3.83891 37069 ft 476 kts 60°
2026-04-29 00:51 44.90967 3.92047 37075 ft 475 kts 60°
2026-04-29 00:51 44.94146 4.00154 37086 ft 475 kts 60°
2026-04-29 00:52 44.97337 4.08332 37085 ft 475 kts 60°
2026-04-29 00:52 45.00518 4.16509 37084 ft 475 kts 60°
2026-04-29 00:53 45.03694 4.24695 37072 ft 475 kts 60°
2026-04-29 00:53 45.06847 4.32827 37075 ft 475 kts 60°
2026-04-29 00:54 45.10006 4.41025 37075 ft 474 kts 61°
2026-04-29 00:54 45.13157 4.49224 37088 ft 474 kts 61°
2026-04-29 00:55 45.16302 4.57429 37083 ft 474 kts 61°
2026-04-29 00:55 45.19416 4.65580 37070 ft 473 kts 60°
2026-04-29 00:56 45.22550 4.73791 37075 ft 473 kts 61°
2026-04-29 00:56 45.25673 4.82012 37077 ft 473 kts 61°
2026-04-29 00:57 45.28790 4.90237 37090 ft 473 kts 61°
2026-04-29 00:57 45.31882 4.98408 37085 ft 473 kts 61°
2026-04-29 00:58 45.34985 5.06654 37076 ft 473 kts 61°
2026-04-29 00:58 45.38082 5.14904 37078 ft 473 kts 61°
2026-04-29 00:59 45.41180 5.23171 37078 ft 474 kts 61°
2026-04-29 00:59 45.44250 5.31395 37080 ft 474 kts 61°
2026-04-29 01:00 45.47343 5.39680 37082 ft 473 kts 58°
2026-04-29 01:00 45.51363 5.47030 37077 ft 469 kts 40°
2026-04-29 01:01 45.56226 5.53221 37080 ft 469 kts 39°
2026-04-29 01:01 45.61091 5.59434 37089 ft 469 kts 39°
2026-04-29 01:02 45.65914 5.65624 37080 ft 470 kts 39°
2026-04-29 01:02 45.70775 5.71872 37086 ft 470 kts 39°
2026-04-29 01:03 45.75643 5.78132 37095 ft 471 kts 39°
2026-04-29 01:03 45.80521 5.84385 37094 ft 471 kts 39°
2026-04-29 01:04 45.85365 5.90612 37101 ft 471 kts 39°
2026-04-29 01:04 45.90230 5.96911 37110 ft 471 kts 39°
2026-04-29 01:05 45.95089 6.03220 37096 ft 471 kts 39°
2026-04-29 01:05 45.99955 6.09527 37097 ft 471 kts 39°
2026-04-29 01:06 46.04778 6.15798 37108 ft 471 kts 39°
2026-04-29 01:06 46.09629 6.22149 37101 ft 471 kts 40°
2026-04-29 01:07 46.14357 6.28707 37100 ft 472 kts 42°
2026-04-29 01:07 46.18993 6.35429 37104 ft 473 kts 43°
2026-04-29 01:08 46.23605 6.42112 37106 ft 473 kts 42°
2026-04-29 01:08 46.28278 6.48790 37106 ft 473 kts 41°
2026-04-29 01:09 46.32961 6.55464 37099 ft 472 kts 41°
2026-04-29 01:09 46.37632 6.62152 37104 ft 473 kts 42°
2026-04-29 01:10 46.42296 6.68873 37112 ft 473 kts 42°
2026-04-29 01:10 46.46928 6.75558 37109 ft 473 kts 42°
2026-04-29 01:11 46.51591 6.82304 37104 ft 473 kts 42°
2026-04-29 01:11 46.56199 6.89144 37101 ft 475 kts 47°
2026-04-29 01:12 46.60334 6.96574 37109 ft 476 kts 48°
2026-04-29 01:12 46.64486 7.04067 37106 ft 476 kts 48°
2026-04-29 01:13 46.68641 7.11564 37105 ft 476 kts 48°
2026-04-29 01:13 46.72794 7.19064 37104 ft 476 kts 48°
2026-04-29 01:14 46.76907 7.26538 37110 ft 476 kts 48°
2026-04-29 01:14 46.81041 7.34081 37102 ft 476 kts 48°
2026-04-29 01:15 46.84939 7.41910 37097 ft 479 kts 59°
2026-04-29 01:15 46.87533 7.50900 37114 ft 481 kts 68°
2026-04-29 01:16 46.89893 7.59990 37121 ft 481 kts 68°
2026-04-29 01:16 46.92279 7.69141 37139 ft 482 kts 68°
2026-04-29 01:17 46.94649 7.78307 37129 ft 482 kts 68°
2026-04-29 01:17 46.97004 7.87502 37127 ft 482 kts 68°
2026-04-29 01:18 46.99342 7.96639 37127 ft 482 kts 68°
2026-04-29 01:18 47.02864 8.10444 37127 ft 482 kts 68°
2026-04-29 01:19 47.05203 8.19666 37099 ft 483 kts 68°
2026-04-29 01:19 47.07531 8.28894 37101 ft 483 kts 68°
2026-04-29 01:20 47.09835 8.38073 37116 ft 482 kts 68°
2026-04-29 01:20 47.12145 8.47305 37132 ft 482 kts 68°
2026-04-29 01:21 47.14452 8.56538 37129 ft 482 kts 68°
2026-04-29 01:21 47.16751 8.65777 37118 ft 481 kts 68°
2026-04-29 01:22 47.19022 8.74967 37111 ft 482 kts 68°
2026-04-29 01:22 47.21298 8.84224 37113 ft 482 kts 68°
2026-04-29 01:23 47.23572 8.93496 37118 ft 482 kts 68°
2026-04-29 01:23 47.25840 9.02771 37128 ft 482 kts 68°
2026-04-29 01:24 47.28106 9.12049 37129 ft 481 kts 68°
2026-04-29 01:24 47.30347 9.21276 37124 ft 482 kts 68°
2026-04-29 01:25 47.32593 9.30579 37124 ft 482 kts 68°
2026-04-29 01:25 47.34830 9.39904 37103 ft 482 kts 68°
2026-04-29 01:26 47.37055 9.49240 37104 ft 483 kts 69°
2026-04-29 01:26 47.39256 9.58522 37100 ft 483 kts 69°
2026-04-29 01:27 47.41844 9.67615 37111 ft 478 kts 56°
2026-04-29 01:27 47.45320 9.75974 37104 ft 478 kts 55°
2026-04-29 01:28 47.48787 9.84363 37104 ft 478 kts 55°
2026-04-29 01:28 47.52236 9.92784 37098 ft 479 kts 55°
2026-04-29 01:29 47.55660 10.01158 37118 ft 479 kts 56°
2026-04-29 01:29 47.59109 10.09593 37142 ft 479 kts 55°
2026-04-29 01:30 47.62552 10.18039 37141 ft 479 kts 55°
2026-04-29 01:30 47.65985 10.26496 37144 ft 478 kts 55°
2026-04-29 01:31 47.69388 10.34901 37149 ft 478 kts 55°
2026-04-29 01:31 47.72803 10.43374 37144 ft 478 kts 55°
2026-04-29 01:32 47.76215 10.51856 37170 ft 478 kts 55°
2026-04-29 01:32 47.79617 10.60335 37176 ft 477 kts 55°
2026-04-29 01:33 47.82985 10.68769 37174 ft 477 kts 55°
2026-04-29 01:33 47.86365 10.77270 37164 ft 477 kts 55°
2026-04-29 01:34 47.89745 10.85772 37157 ft 477 kts 55°
2026-04-29 01:34 47.93119 10.94286 37171 ft 477 kts 55°
2026-04-29 01:35 47.96467 11.02751 37165 ft 477 kts 55°
2026-04-29 01:35 47.99826 11.11299 37176 ft 477 kts 55°
2026-04-29 01:36 48.03183 11.19873 37166 ft 478 kts 55°
2026-04-29 01:36 48.06546 11.28462 37151 ft 479 kts 56°
2026-04-29 01:37 48.09880 11.37019 37171 ft 479 kts 55°
2026-04-29 01:37 48.13229 11.45649 37165 ft 480 kts 56°
2026-04-29 01:38 48.16575 11.54295 37164 ft 480 kts 55°
2026-04-29 01:38 48.19923 11.62956 37193 ft 480 kts 55°
2026-04-29 01:39 48.23261 11.71644 37189 ft 481 kts 55°
2026-04-29 01:39 48.26570 11.80290 37185 ft 481 kts 56°
2026-04-29 01:40 48.29899 11.89004 37183 ft 481 kts 55°
2026-04-29 01:40 48.33233 11.97724 37185 ft 481 kts 56°
2026-04-29 01:41 48.36554 12.06462 37189 ft 481 kts 56°
2026-04-29 01:41 48.39840 12.15155 37204 ft 481 kts 55°
2026-04-29 01:42 48.43142 12.23930 37227 ft 482 kts 55°
2026-04-29 01:42 48.46423 12.32672 37185 ft 477 kts 55°
2026-04-29 01:43 48.49677 12.41356 37195 ft 477 kts 55°
2026-04-29 01:43 48.52913 12.50011 37197 ft 477 kts 55°
2026-04-29 01:44 48.56168 12.58752 37200 ft 477 kts 55°
2026-04-29 01:44 48.59412 12.67497 37202 ft 478 kts 55°
2026-04-29 01:45 48.62632 12.76200 37209 ft 477 kts 56°
2026-04-29 01:45 48.65855 12.84958 37210 ft 476 kts 56°
2026-04-29 01:46 48.69071 12.93716 37214 ft 476 kts 56°
2026-04-29 01:46 48.72280 13.02478 37213 ft 475 kts 56°
2026-04-29 01:47 48.75477 13.11242 37211 ft 475 kts 56°
2026-04-29 01:47 48.78646 13.19958 37258 ft 475 kts 56°
2026-04-29 01:48 48.81815 13.28713 37200 ft 472 kts 56°
2026-04-29 01:48 48.84984 13.37459 37217 ft 473 kts 56°
2026-04-29 01:49 48.88139 13.46226 37221 ft 473 kts 56°
2026-04-29 01:49 48.91012 13.55264 37238 ft 478 kts 62°
2026-04-29 01:50 48.93533 13.64545 37246 ft 478 kts 62°
2026-04-29 01:50 48.96069 13.73885 37277 ft 478 kts 63°
2026-04-29 01:51 48.98598 13.83247 37279 ft 478 kts 63°
2026-04-29 01:51 49.01113 13.92624 37268 ft 478 kts 63°
2026-04-29 01:52 49.03622 14.02007 37279 ft 478 kts 63°
2026-04-29 01:52 49.06113 14.11344 37278 ft 478 kts 63°
2026-04-29 01:53 49.08612 14.20749 37275 ft 479 kts 63°
2026-04-29 01:53 49.11104 14.30154 37304 ft 478 kts 63°
2026-04-29 01:54 49.13585 14.39565 37295 ft 478 kts 63°
2026-04-29 01:54 49.16044 14.48916 37293 ft 478 kts 63°
2026-04-29 01:55 49.18509 14.58347 37294 ft 478 kts 63°
2026-04-29 01:55 49.20962 14.67798 37294 ft 478 kts 63°
2026-04-29 01:56 49.22997 14.75654 37294 ft 478 kts 63°
2026-04-29 01:56 49.25444 14.85111 37276 ft 476 kts 63°
2026-04-29 01:57 49.28247 14.96052 37282 ft 475 kts 64°
2026-04-29 01:57 49.30506 15.05586 37288 ft 477 kts 66°
2026-04-29 01:58 49.32256 15.13615 37297 ft 478 kts 67°
2026-04-29 01:58 49.34341 15.23294 37304 ft 478 kts 66°
2026-04-29 01:59 49.36813 15.34537 37329 ft 479 kts 66°
2026-04-29 01:59 49.38614 15.42632 37358 ft 479 kts 66°
2026-04-29 02:00 49.40733 15.52187 37301 ft 474 kts 66°
2026-04-29 02:00 49.42836 15.61792 37306 ft 474 kts 66°
2026-04-29 02:01 49.44927 15.71414 37322 ft 475 kts 66°
2026-04-29 02:01 49.46999 15.80989 37323 ft 475 kts 66°
2026-04-29 02:02 49.49095 15.90631 37336 ft 476 kts 66°
2026-04-29 02:02 49.51184 16.00286 37332 ft 476 kts 66°
2026-04-29 02:03 49.53253 16.09965 37310 ft 475 kts 66°
2026-04-29 02:03 49.55285 16.19513 37315 ft 471 kts 66°
2026-04-29 02:04 49.57337 16.29098 37322 ft 472 kts 66°
2026-04-29 02:04 49.59376 16.38703 37342 ft 472 kts 67°
2026-04-29 02:05 49.61400 16.48342 37346 ft 473 kts 67°
2026-04-29 02:05 49.63406 16.57932 37097 ft 474 kts 67°
2026-04-29 02:06 49.64431 16.62830 36080 ft 485 kts 67°
2026-04-29 02:06 49.65467 16.67785 35383 ft 487 kts 66°
2026-04-29 02:06 49.66506 16.72770 34832 ft 486 kts 67°
2026-04-29 02:06 49.67535 16.77728 34261 ft 485 kts 67°
2026-04-29 02:07 49.68558 16.82672 33678 ft 482 kts 67°
2026-04-29 02:07 49.69570 16.87587 33134 ft 479 kts 67°
2026-04-29 02:07 49.70574 16.92473 32630 ft 476 kts 67°
2026-04-29 02:07 49.71556 16.97271 32066 ft 473 kts 67°
2026-04-29 02:08 49.72545 17.02108 31533 ft 470 kts 67°
2026-04-29 02:08 49.73523 17.06909 30995 ft 467 kts 68°
2026-04-29 02:08 49.74491 17.11678 30472 ft 464 kts 68°
2026-04-29 02:08 49.75454 17.16414 29892 ft 460 kts 68°
2026-04-29 02:09 49.76406 17.21095 29395 ft 454 kts 68°
2026-04-29 02:09 49.77344 17.25727 28891 ft 448 kts 68°
2026-04-29 02:09 49.78266 17.30303 28405 ft 443 kts 68°
2026-04-29 02:09 49.79178 17.34832 27930 ft 438 kts 68°
2026-04-29 02:10 49.80067 17.39244 27477 ft 433 kts 68°
2026-04-29 02:10 49.80957 17.43668 27024 ft 428 kts 68°
2026-04-29 02:10 49.81834 17.48045 26588 ft 424 kts 68°
2026-04-29 02:10 49.82703 17.52391 26144 ft 421 kts 68°
2026-04-29 02:11 49.83561 17.56706 25704 ft 417 kts 68°
2026-04-29 02:11 49.84409 17.60986 25269 ft 414 kts 68°
2026-04-29 02:11 49.85252 17.65245 24822 ft 412 kts 68°
2026-04-29 02:11 49.86092 17.69484 24361 ft 411 kts 68°
2026-04-29 02:12 49.86918 17.73652 23927 ft 410 kts 68°
2026-04-29 02:12 49.87752 17.77871 23409 ft 408 kts 68°
2026-04-29 02:12 49.88574 17.82061 22935 ft 405 kts 68°
2026-04-29 02:12 49.89389 17.86227 22460 ft 402 kts 68°
2026-04-29 02:13 49.90193 17.90351 21990 ft 398 kts 68°
2026-04-29 02:13 49.90989 17.94452 21517 ft 395 kts 68°
2026-04-29 02:13 49.91777 17.98523 21049 ft 392 kts 68°
2026-04-29 02:13 49.92578 18.02542 20636 ft 387 kts 65°
2026-04-29 02:14 49.93699 18.06209 20190 ft 376 kts 53°
2026-04-29 02:14 49.95215 18.09447 19754 ft 367 kts 46°
2026-04-29 02:14 49.96789 18.12543 19321 ft 364 kts 46°
2026-04-29 02:14 49.98337 18.15623 18887 ft 360 kts 47°
2026-04-29 02:15 49.99867 18.18685 18430 ft 357 kts 47°
2026-04-29 02:15 50.01353 18.21760 17982 ft 354 kts 49°
2026-04-29 02:15 50.02765 18.24876 17542 ft 350 kts 50°
2026-04-29 02:15 50.04124 18.27985 17129 ft 346 kts 51°
2026-04-29 02:16 50.05456 18.31071 16702 ft 342 kts 51°
2026-04-29 02:16 50.06767 18.34069 16225 ft 338 kts 48°
2026-04-29 02:16 50.08429 18.36588 15310 ft 332 kts 29°
2026-04-29 02:16 50.10467 18.38203 14454 ft 329 kts 20°
2026-04-29 02:17 50.12548 18.39657 13761 ft 325 kts 20°
2026-04-29 02:17 50.14591 18.41088 13041 ft 320 kts 20°
2026-04-29 02:17 50.16612 18.42505 12376 ft 317 kts 20°
2026-04-29 02:17 50.18611 18.43905 11945 ft 313 kts 20°
2026-04-29 02:18 50.20579 18.45291 11553 ft 308 kts 21°
2026-04-29 02:18 50.22492 18.46641 11180 ft 303 kts 21°
2026-04-29 02:18 50.24402 18.47986 10809 ft 299 kts 21°
2026-04-29 02:18 50.26286 18.49311 10449 ft 295 kts 21°
2026-04-29 02:19 50.28118 18.50609 10314 ft 283 kts 21°
2026-04-29 02:19 50.29880 18.51858 10104 ft 275 kts 21°
2026-04-29 02:19 50.31613 18.53081 9730 ft 272 kts 21°
2026-04-29 02:19 50.33330 18.54294 9415 ft 269 kts 21°
2026-04-29 02:20 50.35007 18.55479 9018 ft 267 kts 21°
2026-04-29 02:20 50.36692 18.56671 8655 ft 265 kts 21°
2026-04-29 02:20 50.38364 18.57855 8315 ft 262 kts 22°
2026-04-29 02:20 50.40019 18.59029 7962 ft 260 kts 22°
2026-04-29 02:21 50.41662 18.60194 7624 ft 258 kts 22°
2026-04-29 02:21 50.43267 18.61334 7281 ft 249 kts 23°
2026-04-29 02:21 50.44816 18.62436 6885 ft 244 kts 23°
2026-04-29 02:21 50.46288 18.63749 6364 ft 244 kts 40°
2026-04-29 02:22 50.47287 18.65849 5994 ft 240 kts 65°
2026-04-29 02:22 50.47621 18.68166 5719 ft 234 kts 85°
2026-04-29 02:22 50.47626 18.70623 5386 ft 226 kts 87°
2026-04-29 02:22 50.47625 18.73038 5085 ft 215 kts 88°
2026-04-29 02:23 50.47622 18.75301 4800 ft 200 kts 88°
2026-04-29 02:23 50.47619 18.77421 4511 ft 189 kts 88°
2026-04-29 02:23 50.47618 18.79433 4262 ft 180 kts 88°
2026-04-29 02:23 50.47618 18.81348 4029 ft 172 kts 88°
2026-04-29 02:24 50.47620 18.83184 3805 ft 165 kts 88°
2026-04-29 02:24 50.47619 18.84926 3601 ft 158 kts 88°
2026-04-29 02:24 50.47617 18.86611 3399 ft 151 kts 89°
2026-04-29 02:25 50.47616 18.89826 2995 ft 145 kts 89°
2026-04-29 02:25 50.47616 18.91399 2801 ft 143 kts 89°
2026-04-29 02:25 50.47616 18.92956 2607 ft 142 kts 89°
2026-04-29 02:25 50.47614 18.94501 2418 ft 141 kts 89°
2026-04-29 02:26 50.47612 18.96030 2231 ft 140 kts 88°
2026-04-29 02:26 50.47611 18.97549 2044 ft 139 kts 88°
2026-04-29 02:26 50.47610 18.99040 1848 ft 138 kts 89°
2026-04-29 02:26 50.47608 19.00556 1652 ft 139 kts 89°
2026-04-29 02:27 50.47614 19.02075 1490 ft 139 kts 89°
2026-04-29 02:27 50.47611 19.03589 1313 ft 139 kts 91°
2026-04-29 02:27 50.47605 19.05106 1145 ft 138 kts 90°
2026-04-29 02:27 50.47603 19.06615 986 ft 133 kts 90°
2026-04-29 02:28 50.47604 19.07854 994 ft 91 kts 90°
2026-04-29 02:28 50.47600 19.08575 1000 ft 40 kts 90°
2026-04-29 02:28 50.47598 19.08993 1006 ft 37 kts 90°
2026-04-29 02:28 50.47598 19.09313 1008 ft 21 kts 90°
2026-04-29 02:29 50.47550 19.09391 1008 ft 12 kts 176°
2026-04-29 02:29 50.47460 19.09389 1008 ft 14 kts 187°
2026-04-29 02:29 50.47423 19.09255 1006 ft 16 kts 268°
2026-04-29 02:29 50.47421 19.09067 1005 ft 19 kts 270°
2026-04-29 02:30 50.47422 19.08844 1003 ft 22 kts 270°
2026-04-29 02:30 50.47424 19.08589 1001 ft 25 kts 270°
2026-04-29 02:30 50.47425 19.08308 1000 ft 28 kts 271°
2026-04-29 02:30 50.47426 19.08019 996 ft 22 kts 270°
2026-04-29 02:31 50.47426 19.07758 994 ft 25 kts 270°
2026-04-29 02:31 50.47426 19.07547 993 ft 12 kts 270°
2026-04-29 02:31 50.47390 19.07451 993 ft 11 kts 191°
2026-04-29 02:31 50.47315 19.07444 997 ft 12 kts 181°
2026-04-29 02:32 50.47242 19.07418 993 ft 10 kts 233°
2026-04-29 02:32 50.47235 19.07313 996 ft 9 kts 269°
2026-04-29 02:32 50.47234 19.07213 993 ft 10 kts 270°
2026-04-29 02:32 50.47236 19.07088 994 ft 13 kts 271°
2026-04-29 02:33 50.47234 19.06970 990 ft 7 kts 248°
2026-04-29 02:33 50.47198 19.06952 988 ft 5 kts 181°
2026-04-29 02:33 50.47172 19.06952 994 ft 3 kts 180°
2026-04-29 02:33 50.47159 19.06952 990 ft 1 kts 179°
2026-04-29 02:34 50.47157 19.06952 994 ft 1 kts 179°
2026-04-29 02:34 50.47152 19.06952 993 ft 1 kts 180°
2026-04-29 02:34 50.47151 19.06952 992 ft 0 kts 180°